CDT,Max TemperatureF,Mean TemperatureF,Min TemperatureF,Max Dew PointF,MeanDew PointF,Min DewpointF,Max Humidity, Mean Humidity, Min Humidity, Max Sea Level PressureIn, Mean Sea Level PressureIn, Min Sea Level PressureIn, Max VisibilityMiles, Mean VisibilityMiles, Min VisibilityMiles, Max Wind SpeedMPH, Mean Wind SpeedMPH, Max Gust SpeedMPH,PrecipitationIn, CloudCover, Events, WindDirDegrees
2011-3-1,52,37,21,32,27,19,92,69,46,30.30,30.22,30.14,10,10,10,17,8,23,0.00,0,,228
2011-3-2,42,31,20,29,23,16,88,68,48,30.49,30.39,30.30,10,10,10,17,11,21,0.00,0,,50
2011-3-3,58,45,32,40,34,28,85,68,51,30.29,30.09,29.94,10,10,10,16,10,22,0.00,1,,125
2011-3-4,61,47,32,48,42,33,100,78,55,30.10,29.95,29.87,10,5,1,23,9,30,0.61,7,Rain-Thunderstorm,343
2011-3-5,32,29,25,31,24,21,100,88,75,30.40,30.28,30.11,10,6,1,23,12,30,0.01,8,Snow,337
2011-3-6,41,34,26,29,25,21,85,73,60,30.39,30.28,30.17,10,10,10,13,6,16,0.00,6,,113
2011-3-7,41,36,30,34,31,27,100,90,79,30.17,30.11,30.05,10,6,4,15,9,17,0.04,7,Rain,111
2011-3-8,42,38,34,43,38,32,100,93,85,30.09,29.94,29.80,7,4,1,21,10,25,0.50,7,Rain,80
2011-3-9,42,38,33,43,36,31,100,95,89,30.15,29.89,29.74,8,3,0,20,11,29,0.02,8,Fog-Snow,293
2011-3-10,43,34,25,31,28,24,92,75,57,30.32,30.25,30.16,10,9,6,16,9,25,0.00,5,,305
2011-3-11,63,43,22,38,32,22,100,68,36,30.22,30.01,29.83,10,9,5,22,9,36,0.00,0,,180
2011-3-12,51,42,32,33,30,28,82,64,46,30.26,30.08,29.93,10,10,10,20,11,29,0.00,0,,306
2011-3-13,36,31,26,28,26,23,92,81,70,30.44,30.36,30.25,10,10,5,15,9,23,0.00,5,,30
2011-3-14,43,37,30,29,27,26,85,69,53,30.40,30.33,30.23,10,9,7,15,9,24,0.00,2,,45
2011-3-15,58,44,29,30,26,19,85,56,26,30.22,30.15,30.08,10,10,8,8,5,10,0.00,3,,309
2011-3-16,66,49,34,43,37,31,96,68,40,30.16,30.08,29.94,10,10,8,20,7,25,0.00,0,,211
2011-3-17,73,61,48,58,52,44,77,66,55,30.09,29.87,29.79,10,10,10,24,13,35,0.00,5,,220
2011-3-18,61,48,34,43,33,28,86,59,32,30.40,30.29,30.12,10,10,10,17,8,23,0.01,3,Rain,14
2011-3-19,56,42,28,42,33,28,92,65,38,30.45,30.35,30.22,10,10,7,24,12,30,T,2,Rain,107
2011-3-20,77,61,45,59,50,42,92,69,46,30.20,30.03,29.86,10,10,5,26,13,35,0.06,4,Rain-Thunderstorm,182
2011-3-21,74,61,48,59,54,47,100,79,57,30.07,29.99,29.90,10,7,3,10,6,14,0.00,2,,70
2011-3-22,72,63,54,58,55,52,90,74,57,29.91,29.63,29.42,10,9,2,26,14,35,0.45,3,Rain-Thunderstorm,187
2011-3-23,54,44,33,54,40,29,89,74,58,30.02,29.67,29.44,10,9,1,26,14,36,T,6,Rain-Thunderstorm,281
2011-3-24,43,35,27,30,25,19,85,68,50,30.27,30.14,30.00,10,10,4,21,8,40,0.05,6,Snow,5
2011-3-25,36,34,31,32,31,28,100,88,75,30.15,30.06,30.00,10,4,0,14,8,17,0.09,8,Fog-Snow,93
2011-3-26,35,32,28,30,24,21,85,73,61,30.14,30.05,29.99,10,7,0,22,13,28,0.01,7,Snow,63
2011-3-27,40,33,25,21,20,17,75,60,44,30.25,30.18,30.13,10,10,10,15,9,21,0.00,6,,65
2011-3-28,44,36,28,28,19,16,63,48,33,30.27,30.20,30.12,10,10,5,20,9,23,T,4,Snow,79
2011-3-29,42,36,30,31,29,27,92,78,64,30.30,30.23,30.19,10,8,3,16,9,26,0.01,8,Snow,52
2011-3-30,49,39,29,34,28,20,100,68,36,30.22,30.10,29.95,10,6,0,14,4,15,0.00,5,Fog,55
2011-3-31,50,37,23,30,27,23,92,66,39,29.95,29.82,29.74,10,9,5,9,4,24,0.00,4,,242